Regional Weather Roundup
Issued by NWS

Home | Current Version | Previous Version | Graphics & Text | Print | Product List | Glossary On
Versions: 1 2 3 4 5 6 7 8 9 10 11 12 13 14 15 16 17 18 19 20 21 22 23 24 25 26 27 28 29 30 31 32 33 34 35 36 37 38 39 40 41 42 43 44 45 46 47 48 49 50
000
ASUS45 KCYS 290210
RWRWY

WYOMING REGIONAL WEATHER ROUNDUP
NATIONAL WEATHER SERVICE CHEYENNE WY
700 PM MST FRI NOV 28 2014

NOTE:  "FAIR" INDICATES FEW OR NO CLOUDS BELOW 12,000 FEET
WITH NO SIGNIFICANT WEATHER AND/OR OBSTRUCTIONS TO VISIBILITY.

WYZ001-290300-
YELLOWSTONE NATIONAL PARK

CITY           SKY/WX    TMP DP  RH WIND       PRES   REMARKS
LK YELLOWSTONE   N/A     37  11  34 VRB7      29.72F WCI  32
W YELLOWSTONE  NOT AVBL

$$
WYZ002>013-054>058-071-098>099-290300-
NORTHERN WYOMING

CITY           SKY/WX    TMP DP  RH WIND       PRES   REMARKS
JACKSON        MOCLDY    45  18  33 S21       29.74F
CODY           PTCLDY    48  16  27 SW16G24   29.59S
GREYBULL       CLEAR     39  27  62 SW10      29.59S WCI  32
WORLAND        MOCLDY    41  26  55 SE14      29.59F
SHERIDAN       PTCLDY    58  16  19 CALM      29.50F
BUFFALO        MOCLDY    53  16  23 SW17G33   29.53F
GILLETTE       CLOUDY    50  25  37 SW18      29.57S
HULETT           N/A    N/A N/A N/A MISG        N/A
NEWCASTLE      FAIR      46  23  39 CALM      29.63F

$$
WYZ014>020-022>026-101>103-290300-
CENTRAL WYOMING

CITY           SKY/WX    TMP DP  RH WIND       PRES   REMARKS
BIG PINEY      CLOUDY    40  15  36 W13       29.86S WCI  32
PINEDALE       CLOUDY    37  18  44 SW12      29.84F WCI  30
DUBOIS         MOCLDY    39  12  33 W15       29.72F WCI  31
LANDER         PTCLDY    54   5  14 W24G37    29.70F
RIVERTON       MOCLDY    53   8  16 W22G33    29.71F
CASPER         PTCLDY    47  18  31 SW17      29.71F
DOUGLAS        PTCLDY    51  18  27 NW12      29.70F

$$
WYZ021-027>030-104>119-290300-
SOUTHERN WYOMING

CITY           SKY/WX    TMP DP  RH WIND       PRES   REMARKS
EVANSTON       PTCLDY    43  15  32 SW16      29.89F
FORT BRIDGER   FAIR      47  10  23 SW16      29.91
ROCK SPRINGS   CLEAR     38  11  32 S10       29.88F WCI  31
DIXON          FAIR      39  20  45 NW5       29.96F
RAWLINS        CLEAR     46  12  25 W18       29.86S
SARATOGA       FAIR      36  18  48 SE9       29.92F WCI  29
LARAMIE        MOCLDY    44  11  26 SW15      29.89S
CHEYENNE       CLOUDY    50  12  21 W15       29.83S
TORRINGTON     MOCLDY    55  15  20 SW8       29.70F
PINE BLUFFS    FAIR      41  18  38 W8        29.81S

$$


USA.gov is the U.S. government's official web portal to all federal, state and local government web resources and services.